STARLINK-4446 (53505 NORAD) Tracking and Keplerian Element Data

This shows tracking and keplerian element data for the satellite.

Feedback or suggestion? Click here.




ElementValue
Catalog53505
NameSTARLINK-4446
Epoch Orbit1552
Epoch Day325.25822728
Epoch Year2022
RAAN84.3199
Inclination97.656
Eccentricity0.0002451
Argument of Perigee31.7485
Mean Anonmoly328.3886
Mean Motion15.01239624
Decay Rate-3.415E-05
L11 53505U 22099AS 22325.25822728 -.00003415 00000+0 -26155-3 0 9996
L22 53505 97.6560 84.3199 0002451 31.7485 328.3886 15.01239624 15521



Live tracking and technical data element details for STARLINK-4446 (NORAD 53505). STARLINK-4446 can be tracked NOW for your location showing map with azimuth and elevation plus other details from your city location.







IsCatalogInMostPopularTable: catalog: 53505, numindb: 5
Update: records affected: 1



GetName: 53505 STARLINK-4446

Hit Count: updated at: Thu, 08 Dec 2022 10:27:03 GMT